Preview of NWS' New Version of Forecast
This preview is not operational and should not be used for support decisions.

Regional Weather Roundup (RWR)

Issued by Gray - Portland, ME (GYX)

                            
610 
ASUS41 KGYX 190610
RWRGYX
WEATHER ROUNDUP FOR MAINE AND NEW HAMPSHIRE
NATIONAL WEATHER SERVICE GRAY ME
100 AM EST MON FEB 19 2018

MEZ002-005-006-010-012-015-018-020-021-024-026-027-029-190700-
MAINE
  
CITY           SKY/WX    TMP DP  RH WIND       PRES   REMARKS
PORTLAND       FAIR      19  18  95 W3        30.51S                  
6HR MIN TEMP:  19; 6HR MAX TEMP:  34;                                

SANFORD        FAIR      12  10  92 VRB3      30.52R                  
BAR HARBOR     FAIR      23  20  88 S3        30.51S                  
WISCASSET      FAIR      18  16  92 CALM      30.52S                  
6HR MIN TEMP:  18; 6HR MAX TEMP:  29;                                

ROCKLAND       FAIR      22  19  89 CALM      30.51F                  
FRYEBURG       FAIR      16  15  96 CALM      30.49R                  
6HR MIN TEMP:  15; 6HR MAX TEMP:  33;                                

LEWISTONAUBURN FAIR      15  13  91 CALM      30.50R                  
AUGUSTA        FAIR      24  18  77 CALM      30.48F                  
6HR MIN TEMP:  24; 6HR MAX TEMP:  34;                                

WATERVILLE     FAIR      22  17  81 CALM      30.44S                  
BANGOR         FAIR      13  11  92 CALM      30.49R                  
6HR MIN TEMP:  10; 6HR MAX TEMP:  33;                                

GREENVILLE       N/A     16  11  80 CALM      30.36F                  
6HR MIN TEMP:  13; 6HR MAX TEMP:  24;                                

MILLINOCKET    FAIR      11  10  96 CALM      30.46F FOG              
6HR MIN TEMP:   8; 6HR MAX TEMP:  30;                                

HOULTON        FAIR       8   4  83 CALM      30.42R                  
6HR MIN TEMP:   6; 6HR MAX TEMP:  30;                                

PRESQUE ISLE   FAIR       4   0  83 CALM      30.43R                  
6HR MIN TEMP:   4; 6HR MAX TEMP:  28;                                

FRENCHVILLE    FAIR      19  13  77 S5        30.36R                  
6HR MIN TEMP:  16; 6HR MAX TEMP:  26;                                

CARIBOU        FAIR      15  10  80 SW5       30.40R                  
6HR MIN TEMP:  14; 6HR MAX TEMP:  29; 6HR PCP: TRACE;                

$$

NHZ002-005-008-009-011-012-014-190700-
NEW HAMPSHIRE
  
CITY           SKY/WX    TMP DP  RH WIND       PRES   REMARKS
PORTSMOUTH     CLEAR     22  19  88 CALM      30.51R                  
ROCHESTER      FAIR      22  18  85 CALM      30.51R                  
6HR MIN TEMP:  20; 6HR MAX TEMP:  32;                                

NASHUA         FAIR      19  18  95 CALM      30.52S                  
MANCHESTER     FAIR      24  19  81 SE3       30.50S                  
6HR MIN TEMP:  24; 6HR MAX TEMP:  37;                                

CONCORD        FAIR      20  16  84 CALM      30.50S                  
6HR MIN TEMP:  19; 6HR MAX TEMP:  34;                                

LACONIA        FAIR      14  11  87 CALM      30.49S                  
PLYMOUTH       FAIR      12  10  90 CALM      30.49S                  
BERLIN         FAIR       7   4  87 CALM      30.42R                  
6HR MIN TEMP:   7; 6HR MAX TEMP:  29;                                

WHITEFIELD     FAIR       6   2  83 CALM      30.41S                  
6HR MIN TEMP:   6; 6HR MAX TEMP:  22;                                

JAFFREY        FAIR      17  16  95 CALM      30.47S                  
6HR MIN TEMP:  17; 6HR MAX TEMP:  28;                                

KEENE          FOG       18  18 100 CALM      30.49  VSB 1            
LEBANON        FAIR      18  14  84 NE3       30.45F                  
6HR MIN TEMP:  15; 6HR MAX TEMP:  27;                                

MT WASHINGTON  PTCLDY    19  -8  30 W21         N/A  WCI   3          
6HR MIN TEMP:   6; 6HR MAX TEMP:  20;                                

$$

VTZ005-007-008-190700-
VERMONT
  
CITY           SKY/WX    TMP DP  RH WIND       PRES   REMARKS
ST JOHNSBURY     N/A     14  13  95 MISG      30.44R                  
MONTPELIER     FAIR      23  18  81 SE5       30.43S                  
BURLINGTON     FAIR      31  19  61 SE3       30.41S                  
$$

MAZ007-012-024-CTZ003-RIZ002-NYZ038-NYZ072-190700-
SOUTHERN NEW ENGLAND AND NY
  
CITY           SKY/WX    TMP DP  RH WIND       PRES   REMARKS
BOSTON         FAIR      31  23  72 S6        30.54F                  
WORCESTER      FAIR      25  17  72 W5        30.47F                  
NANTUCKET      FAIR      27  27 100 CALM      30.55S FOG              
PROVIDENCE     FAIR      27  23  85 CALM      30.53F                  
HARTFORD       FAIR      23  20  88 CALM      30.52F                  
ALBANY         FAIR      27  19  72 S5        30.47F                  
NEW YORK CITY  FAIR      34  28  79 NE5       30.53R                  
$$

ANZ081-ANZ082-ANZ150-NHZ014-MEZ023>029-190700-
COASTAL MARINE OBSERVATIONS
  
STATION/POSITION TIME  TEMP    WIND        PRES    WAVE
                       AIR SEA DIR/SP/G            HT/PER
                 (UTC) (F)     (DEG/KT/KT) (MB)    (FT/S)
MOUNT DESERT ROC 0600   35     320/ 11/ 12 1033.5R
MATINICUS ROCK   0600   35     350/  5/  6 1032.7F
ISLE OF SHOALS   0600   36     210/  5/  6 1033.6R
JEFFREYS LEDGE   0536      42                N/A     3/ 8
GEORGES BANK BUO 0450   40 59              1012.1   21/11
$$

.............KEY..............
   WCI - WIND CHILL
   TC  - TEMPERATURE IN CELSIUS
   VSB - VISIBILITY IN MILES
   HX  - HEAT INDEX
   FAIR- INDICATES FEW OR NO CLOUDS BELOW 12,000 FT, WITH NO 
         SIGNIFICANT WEATHER AND/OR OBSTRUCTIONS TO VISIBILITY.